Погода в Горине

Погода в Горине : погода сейчас, прогноз погоды и архив. Всё, что Вы хотите узнать о погоде в Горине!

Хотите узнать прогноз погоды в Горине? Тогда Вам сюда: Погода в Горине

Поиск расширенной информации на нашем сайте:

Другие новости

Новости СМИ2

Главная страница сайта

Новости сайта

02.10.2013

Напоминаем, что на нашем новом сайте вы можете получить высокодетализированные прогнозы погоды по пунктам России, СНГ и мира (включающие важные для авиации метеовеличины, такие как направление и скорость ветра, видимость, явления погоды, количество и форма облачности, нижняя и верхняя граница облачности), а также ознакомиться с разнообразными материалами по авиационной метеорологии и подборкой полезных ссылок на эту тему.

Сайт Метеоцентр.Азия посвящён разработке технологий оптимизации авиаметеорологического обслуживания, включая проектирование и перспективное создание нескольких автоматизированных авиаметеорологических систем:
- система выпуска высокодетальных прогностических карт явлений погоды для нижнего воздушного пространства по России и ближнему зарубежью;
- система верификации прогнозов TAF (выпускаемых синоптиками официальных АМСГ РФ и ближнего зарубежья) и AUTOTAF (выпускаемых сайтом Метеоцентр.Азия) - выявление ошибок, онлайн-сопоставление с фактической погодой METAR, автоматическое внесение коррективов в прогнозы при резком отклонении фактической погоды от прогноза, подсчёт оправдываемости прогнозов по элементам и в целом;
- система обработки, анализа и отображения авиаметеорологической информации для применения провайдерами метеорологической информации.

Рекомендуем: обратите внимание у метро Октябрьская описание помещений на сайте

Погода в Горине - сегодня

Время (UTC), дата Ветер
(°,м/с) 
Видим.   Явления Облачность Т
(°С)
Тd
(°С)
f(%) Тe
(°С)
Pmin
(гПа)
dP
(гПа)
Po
(мм)
O2
(г/м3)
Тmin Tmax R s Состояние
почвы
21 27.03.17 тихо ()   20000 м    3/0 средняя 
[Ac trans]
-10.6 -11.5 93 -11  1013.6  -0.7  751  316  -11      36  равномерный
сухой снег
100% 
00 28.03.17 080 (В) 20000 м    6/0 верхняя 
[Ci sp]
-2.2 -8.4 62 -2  1013.3  751  306           
03 28.03.17 310 (СЗ) 20000 м    8/1 600 м верхняя 
[Cu med, cong|Ci sp]
+4.3 -7.7 41 +4  1012  -1  750  298           
06 28.03.17 340 (С) 20000 м    8/1 600 м верхняя 
[Ci sp]
+4.7 -11.4 30 +4  1011.5  -0.5  750  298           
09 28.03.17 тихо ()   20000 м    8/1 1000 м верхняя 
[Sc diur, vesp|Cc]
+1.8 -7.7 49 +2  1012.3  0.7  751  301    +5.6       
12 28.03.17 250 (З) 20000 м    6/0 верхняя 
[Ci sp]
-2.5 -7.2 70 -2  1013.9  1.3  752  306           
15 28.03.17 тихо ()   20000 м    8/0 верхняя 
[Ci sp]
-3.7 -7.8 73 -4  1014.4  0.4  752  308           
18 28.03.17 300 (СЗ) 20000 м    ясно 
-3.5 -8.9 66 -3  1014.8  0.4  752  308           
21 28.03.17 300 (СЗ) 20000 м    3/0 средняя 
[Ac cast]
-4 -8.8 69 -5  1016  1.3  753  309  -5.5      35  равномерный
сухой снег
100% 
00 29.03.17 290 (З) 20000 м    10/0 верхняя 
[Cs]
-0.1 -8.6 53 -1  1017.2  1.3  754  305           
03 29.03.17 320 (СЗ) 20000 м    10/0 верхняя 
[Cs]
+3.8 -9.5 37 +3  1017.3  0.2  754  301           
06 29.03.17 320 (СЗ) 20000 м    9/1 1000 м верхняя 
[Cu hum|Ci]
+4.5 -9.2 36 +4  1017.2  754  300           
09 29.03.17 300 (СЗ) 20000 м    1/1 1000 м 
[Cu hum]
+2.9 -9.1 41 +4  1017.9  0.6  755  302    +4.9       
12 29.03.17 280 (З) 20000 м    ясно 
-0.4 -7.9 57 -1  1019.6  1.5  756  306           
15 29.03.17 280 (З) 20000 м    8/0 верхняя 
[Ci sp]
-1.3 -6.4 68 -1  1020.3  0.7  756  307           
18 29.03.17 290 (З) 20000 м    8/0 средняя 
[Ac cast]
-1.4 -5.8 72 -2  1021.1  0.7  757  307           
21 29.03.17 310 (СЗ) 20000 м    1/1 1000 м 
[Sc]
-2.9 -7 73 -2  1022  0.8  758  309  -2.9      33  равномерный
сухой снег
100% 
00 30.03.17 310 (СЗ) 20000 м    ясно 
+1.4 -6.2 57 1022.5  0.7  758  305           
03 30.03.17 330 (СЗ) 20000 м    3/3 1000 м 
[Cu med, cong]
+4.6 -7.2 42 +3  1021.8  -0.6  758  301           
06 30.03.17 340 (С) 20000 м    3/3 1000 м 
[Cu med, cong]
+5.3 -9.3 34 +5  1020.7  -1.1  757  300           
09 30.03.17 310 (СЗ) 20000 м    ясно 
+3.1 -8.5 42 +4  1020.5  -0.2  757  302    +5.5       
12 30.03.17 тихо ()   20000 м    ясно 
-2.6 -7.2 71 -3  1021.5  0.7  757  309           
15 30.03.17 тихо ()   20000 м    ясно 
-6.1 -8.2 85 -6  1021.8  0.1  757  313           
18 30.03.17 тихо ()   20000 м    ясно 
-8.2 -9.2 92 -8  1021.8  757  316           
21 30.03.17 тихо ()   20000 м    3/0 средняя 
[Ac lent]
-8.9 -9.9 92 -9  1021.7  -0.2  757  316  -9.1      30  равномерный
сухой снег
100% 
Время (UTC), дата Ветер
(°,м/с) 
Видим.   Явления Облачность Т
(°С)
Тd
(°С)
f(%) Тe
(°С)
Pmin
(гПа)
dP
(гПа)
Po
(мм)
O2
(г/м3)
Тmin Tmax R s Состояние
почвы

Для получения пояснительной информации подведите курсор к названию столбца.

ПОГОДА в Горине - архив

Всё, что Вы хотите узнать о погоде в Горине - удобно и подробно!

Выберите нужную дату (начиная с 1 января 2015* года) и нажмите кнопку "Найти".
Будут отображены архивные сводки погоды по пункту Горин, начиная с указанной даты.


Отображать данные в формате CSV (для использования в таблицах Excel)


Внимание! Наш архив погоды предназначен исключительно для личного некоммерческого использования в познавательных целях. Если Вам необходимы официальные справки о состоянии погоды (для производственных, юридических, коммерческих и т.п. целей), обращайтесь в органы Росгидромета.

*Примечание: данная дата относится к архиву по метеостанциям СССР (Россия, СНГ, Балтия).
Архив по метеостанциям Зарубежной Европы и Азии (кроме Китая) хранится 10 дней, по другим регионам земного шара (Китай, Африка, Америка, Австралия, Океания) - 1 день.

Горин - район местоположения метеостанции


Название, широта, долгота, высота метеостанции:
Горин 51.2°ш. 136.8°д. 92 м над ур. моря [Российская Федерация]

Дополнительная информация

В oтличие oт бoльшинства пoгoдных сайтoв мы публикуем пoдрoбную метеoинфoрмацию в детальнoм прoфессиoнальнoм фoрмате.

Характеристики температуры и влажнoсти вoздуха измеряются на высoте 2 м в тени вдали oт зданий и деревьев.
Скoрoсть ветра измеряется на высoте 10 м (на урoвне рoста челoвека скoрoсть ветра ниже в 1.5-2 раза). Если метеoстанция нахoдится в гoрoде или в лесу, тo скoрoсть ветра занижена на 2-4 м/с пo сравнению с oткрытым местoм. Скoрoсть ветра над акватoриями крупных рек и oзёр, а также на вершинах хoлмoв на 2-5 м/с выше, чем в oбычных услoвиях.
Атмoсфернoе давление в разных тoчках местнoсти мoжет значительнo oтличаться oт давления на метеoстанции, в зависимoсти oт услoвий рельефа (при пoдъёме на 10 м давление пoнижается примернo на 1 мм рт.ст.).